Zurück zum Katalog

STARS

KUKAI

AktivWissenschaftSSO
NORAD 33498·PAYLOAD·🇯🇵 Japan

Gestartet Jan 23, 2009 von Tanegashima Space Center

Loading…

Nächste Überflüge (nächste 24 Stunden)

TLE

AktuellSource: Space-Track

Epoche: Sep 14, 2026, 04:13 UTC

1 33498U 09002G   26257.17582826  .00002099  00000-0  19134-3 0  9990
2 33498  98.1629 208.1827 0006916 231.7377 128.3221 14.96281240951780

Verfolge STARS in Echtzeit mit AllMySat

Download on the App Store